H1 CPF 2 NER 2022 4 20 9 110 01 glonass128 H2 1106401 9128 37867 2022 4 20 0 0 0 2022 4 23 23 45 0 900 1 1 0 0 0 1 H9 10 0 59689 0.00000 0 6060163.139 -23760416.894 7175999.993 10 0 59689 900.00000 0 5838900.555 -22713997.579 10147887.621 10 0 59689 1800.00000 0 5691394.179 -21301606.457 12923701.103 10 0 59689 2700.00000 0 5665764.269 -19557535.478 15449916.207 10 0 59689 3600.00000 0 5803069.207 -17526857.676 17677843.539 10 0 59689 4500.00000 0 6135386.737 -15263696.693 19564544.873 10 0 59689 5400.00000 0 6684279.907 -12829140.126 21073640.552 10 0 59689 6300.00000 0 7459710.947 -10288881.713 22175994.499 10 0 59689 7200.00000 0 8459448.039 -7710687.986 22850265.342 10 0 59689 8100.00000 0 9668990.157 -5161791.743 23083314.355 10 0 59689 9000.00000 0 11062014.327 -2706317.480 22870463.003 10 0 59689 9900.00000 0 12601328.656 -402842.861 22215595.044 10 0 59689 10800.00000 0 14240294.048 1697805.057 21131100.471 10 0 59689 11700.00000 0 15924658.442 3554429.136 19637660.840 10 0 59689 12600.00000 0 17594730.170 5136939.842 17763878.083 10 0 59689 13500.00000 0 19187802.696 6427370.045 15545751.502 10 0 59689 14400.00000 0 20640731.805 7420384.050 13026010.321 10 0 59689 15300.00000 0 21892558.971 8123258.402 10253312.124 10 0 59689 16200.00000 0 22887071.598 8555333.769 7281320.343 10 0 59689 17100.00000 0 23575192.238 8746959.297 4167676.769 10 0 59689 18000.00000 0 23917094.879 8737972.392 972887.924 10 0 59689 18900.00000 0 23883956.984 8575777.108 -2240853.516 10 0 59689 19800.00000 0 23459270.532 8313102.005 -5410889.009 10 0 59689 20700.00000 0 22639653.655 8005532.813 -8475331.166 10 0 59689 21600.00000 0 21435125.528 7708925.704 -11374291.758 10 0 59689 22500.00000 0 19868830.191 7476812.811 -14051074.605 10 0 59689 23400.00000 0 17976218.886 7357912.524 -16453307.636 10 0 59689 24300.00000 0 15803724.084 7393852.946 -18533989.685 10 0 59689 25200.00000 0 13406980.556 7617207.839 -20252429.416 10 0 59689 26100.00000 0 10848668.731 8049930.798 -21575056.193 10 0 59689 27000.00000 0 8196071.884 8702256.035 -22476085.775 10 0 59689 27900.00000 0 5518450.995 9572113.648 -22938027.111 10 0 59689 28800.00000 0 2884348.846 10645084.726 -22952020.143 10 0 59689 29700.00000 0 358937.492 11894898.102 -22517998.456 10 0 59689 30600.00000 0 -1998479.124 13284447.048 -21644674.456 10 0 59689 31500.00000 0 -4136702.750 14767281.712 -20349348.652 10 0 59689 32400.00000 0 -6014525.755 16289512.887 -18657548.369 10 0 59689 33300.00000 0 -7602186.159 17792045.220 -16602504.626 10 0 59689 34200.00000 0 -8882334.188 19213044.272 -14224479.316 10 0 59689 35100.00000 0 -9850473.046 20490532.386 -11569957.565 10 0 59689 36000.00000 0 -10514858.970 21565003.423 -8690722.714 10 0 59689 36900.00000 0 -10895868.590 22381946.189 -5642833.476 10 0 59689 37800.00000 0 -11024863.878 22894170.977 -2485524.362 10 0 59689 38700.00000 0 -10942605.865 23063842.483 719948.456 10 0 59689 39600.00000 0 -10697286.577 22864135.296 3911492.947 10 0 59689 40500.00000 0 -10342264.090 22280444.314 7027375.804 10 0 59689 41400.00000 0 -9933597.142 21311101.341 10007403.322 10 0 59689 42300.00000 0 -9527483.265 19967569.659 12794066.665 10 0 59689 43200.00000 0 -9177707.626 18274109.902 15333631.054 10 0 59689 44100.00000 0 -8933208.575 16266932.003 17577149.699 10 0 59689 45000.00000 0 -8835860.504 13992868.737 19481385.027 10 0 59689 45900.00000 0 -8918565.303 11507625.346 21009621.663 10 0 59689 46800.00000 0 -9203730.861 8873676.478 22132357.603 10 0 59689 47700.00000 0 -9702199.238 6157895.592 22827861.996 10 0 59689 48600.00000 0 -10412668.957 3429012.382 23082590.148 10 0 59689 49500.00000 0 -11321636.045 755000.571 22891448.421 10 0 59689 50400.00000 0 -12403857.545 -1799498.637 22257903.908 10 0 59689 51300.00000 0 -13623320.261 -4175613.398 21193936.035 10 0 59689 52200.00000 0 -14934676.924 -6322439.556 19719829.550 10 0 59689 53100.00000 0 -16285092.748 -8198910.577 17863810.876 10 0 59689 54000.00000 0 -17616428.136 -9775262.043 15661532.384 10 0 59689 54900.00000 0 -18867668.822 -11034029.576 13155411.830 10 0 59689 55800.00000 0 -19977503.565 -11970537.574 10393837.148 10 0 59689 56700.00000 0 -20886942.331 -12592856.990 7430249.583 10 0 59689 57600.00000 0 -21541865.014 -12921232.230 4322121.021 10 0 59689 58500.00000 0 -21895392.429 -12986999.592 1129844.191 10 0 59689 59400.00000 0 -21909977.750 -12831041.533 -2084443.198 10 0 59689 60300.00000 0 -21559127.479 -12501841.177 -5258077.211 10 0 59689 61200.00000 0 -20828676.140 -12053219.289 -8329104.476 10 0 59689 62100.00000 0 -19717557.559 -11541850.210 -11237511.211 10 0 59689 63000.00000 0 -18238037.027 -11024663.515 -13926418.456 10 0 59689 63900.00000 0 -16415391.932 -10556243.594 -16343217.688 10 0 59689 64800.00000 0 -14287052.367 -10186339.924 -18440622.345 10 0 59689 65700.00000 0 -11901236.778 -9957596.189 -20177612.524 10 0 59689 66600.00000 0 -9315139.811 -9903596.948 -21520252.544 10 0 59689 67500.00000 0 -6592748.942 -10047316.660 -22442364.101 10 0 59689 68400.00000 0 -3802382.467 -10400038.162 -22926041.115 10 0 59689 69300.00000 0 -1014053.399 -10960787.123 -22961996.014 10 0 59689 70200.00000 0 1703229.103 -11716306.302 -22549731.068 10 0 59689 71100.00000 0 4284106.902 -12641570.029 -21697532.301 10 0 59689 72000.00000 0 6669357.374 -13700815.819 -20422287.322 10 0 59689 72900.00000 0 8808111.646 -14849047.843 -18749132.229 10 0 59689 73800.00000 0 10659714.882 -16033946.953 -16710936.183 10 0 59689 74700.00000 0 12195152.637 -17198104.719 -14347635.563 10 0 59689 75600.00000 0 13397986.258 -18281485.712 -11705432.527 10 0 59689 76500.00000 0 14264761.442 -19224012.933 -8835875.256 10 0 59689 77400.00000 0 14804876.396 -19968166.817 -5794839.379 10 0 59689 78300.00000 0 15039918.932 -20461488.249 -2641431.583 10 0 59689 79200.00000 0 15002503.941 -20658880.803 563162.427 10 0 59689 80100.00000 0 14734663.174 -20524616.466 3756862.772 10 0 59689 81000.00000 0 14285857.581 -20033962.084 6877890.137 10 0 59689 81900.00000 0 13710697.348 -19174359.955 9865947.867 10 0 59689 82800.00000 0 13066466.253 -17946114.827 12663369.527 10 0 59689 83700.00000 0 12410554.207 -16362559.981 15216211.299 10 0 59689 84600.00000 0 11797904.861 -14449696.415 17475270.045 10 0 59689 85500.00000 0 11278583.882 -12245320.529 19397009.424 10 0 59690 0.00000 0 10895568.048 -9797676.376 20944378.358 10 0 59690 900.00000 0 10682845.724 -7163685.846 22087508.918 10 0 59690 1800.00000 0 10663907.126 -4406831.632 22804279.972 10 0 59690 2700.00000 0 10850685.766 -1594773.701 23080739.879 10 0 59690 3600.00000 0 11242995.570 1203201.779 22911378.637 10 0 59690 4500.00000 0 11828487.450 3918799.760 22299245.176 10 0 59690 5400.00000 0 12583128.549 6487294.295 21255906.672 10 0 59690 6300.00000 0 13472186.209 8849962.933 19801249.239 10 0 59690 7200.00000 0 14451678.049 10956278.343 17963121.851 10 0 59690 8100.00000 0 15470230.253 12765767.281 15776827.910 10 0 59690 9000.00000 0 16471268.902 14249459.776 13284471.583 10 0 59690 9900.00000 0 17395454.576 15390867.447 10534168.948 10 0 59690 10800.00000 0 18183259.488 16186448.871 7579136.782 10 0 59690 11700.00000 0 18777579.253 16645540.860 4476674.705 10 0 59690 12600.00000 0 19126268.795 16789756.633 1287059.243 10 0 59690 13500.00000 0 19184493.926 16651874.637 -1927629.282 10 0 59690 14400.00000 0 18916796.961 16274263.578 -5104723.922 10 0 59690 15300.00000 0 18298786.049 15706909.615 -8182207.567 10 0 59690 16200.00000 0 17318373.503 15005129.290 -11099942.959 10 0 59690 17100.00000 0 15976507.371 14227065.965 -13800870.189 10 0 59690 18000.00000 0 14287362.310 13431077.430 -16232145.860 10 0 59690 18900.00000 0 12277979.175 12673127.499 -18346199.314 10 0 59690 19800.00000 0 9987366.745 12004294.489 -20101683.138 10 0 59690 20700.00000 0 7465102.502 11468504.490 -21464297.423 10 0 59690 21600.00000 0 4769491.165 11100587.449 -22407470.412 10 0 59690 22500.00000 0 1965358.803 10924739.875 -22912881.396 10 0 59690 23400.00000 0 -878423.918 10953460.013 -22970815.442 10 0 59690 24300.00000 0 -3691584.432 11187000.576 -22580343.389 10 0 59690 25200.00000 0 -6405145.237 11613361.427 -21749324.416 10 0 59690 26100.00000 0 -8954061.510 12208821.177 -20494232.403 10 0 59690 27000.00000 0 -11279688.915 12938983.317 -18839811.018 10 0 59690 27900.00000 0 -13331979.022 13760290.555 -16818565.980 10 0 59690 28800.00000 0 -15071311.748 14621941.130 -14470106.269 10 0 59690 29700.00000 0 -16469890.339 15468124.115 -11840348.948 10 0 59690 30600.00000 0 -17512643.291 16240477.604 -8980604.741 10 0 59690 31500.00000 0 -18197598.674 16880664.803 -5946563.808 10 0 59690 32400.00000 0 -18535718.790 17332958.758 -2797202.600 10 0 59690 33300.00000 0 -18550205.694 17546726.768 406366.054 10 0 59690 34200.00000 0 -18275310.013 17478710.457 3602076.805 10 0 59690 35100.00000 0 -17754695.935 17095006.687 6728106.666 10 0 59690 36000.00000 0 -17039433.059 16372667.504 9724058.339 10 0 59690 36900.00000 0 -16185700.686 15300853.538 12532110.021 10 0 59690 37800.00000 0 -15252301.167 13881493.982 15098111.027 10 0 59690 38700.00000 0 -14298086.094 12129426.596 17372603.926 10 0 59690 39600.00000 0 -13379401.901 10072012.422 19311755.535 10 0 59690 40500.00000 0 -12547660.099 7748241.064 20878181.057 10 0 59690 41400.00000 0 -11847131.754 5207362.675 22041647.616 10 0 59690 42300.00000 0 -11313056.498 2507101.758 22779645.381 10 0 59690 43200.00000 0 -10970143.454 -288475.670 23077816.743 10 0 59690 44100.00000 0 -10831525.666 -3111356.164 22930235.988 10 0 59690 45000.00000 0 -10898211.446 -5892138.167 22339534.174 10 0 59690 45900.00000 0 -11159056.110 -8562653.828 21316866.119 10 0 59690 46800.00000 0 -11591256.631 -11058547.551 19881718.782 10 0 59690 47700.00000 0 -12161350.531 -13321706.581 18061562.723 10 0 59690 48600.00000 0 -12826679.601 -15302444.238 15891350.983 10 0 59690 49500.00000 0 -13537259.593 -16961345.653 13412872.325 10 0 59690 50400.00000 0 -14237979.725 -18270698.756 10673968.769 10 0 59690 51300.00000 0 -14871041.259 -19215449.752 7727630.075 10 0 59690 52200.00000 0 -15378533.490 -19793641.473 4630980.767 10 0 59690 53100.00000 0 -15705038.523 -20016314.222 1444178.098 10 0 59690 54000.00000 0 -15800153.882 -19906871.354 -1770758.236 10 0 59690 54900.00000 0 -15620824.409 -19499934.637 -4951161.654 10 0 59690 55800.00000 0 -15133382.091 -18839736.525 -8034954.775 10 0 59690 56700.00000 0 -14315204.299 -17978116.869 -10961880.350 10 0 59690 57600.00000 0 -13155916.806 -16972209.129 -13674700.950 10 0 59690 58500.00000 0 -11658087.406 -15881915.107 -16120341.571 10 0 59690 59400.00000 0 -9837377.876 -14767276.838 -18250950.460 10 0 59690 60300.00000 0 -7722145.551 -13685858.928 -20024855.277 10 0 59690 61200.00000 0 -5352509.832 -12690254.406 -21407393.970 10 0 59690 62100.00000 0 -2778922.187 -11825821.576 -22371602.781 10 0 59690 63000.00000 0 -60299.766 -11128749.198 -22898747.156 10 0 59690 63900.00000 0 2738198.345 -10624532.715 -22978684.898 10 0 59690 64800.00000 0 5547658.032 -10326926.092 -22610054.844 10 0 59690 65700.00000 0 8298055.019 -10237412.892 -21800288.162 10 0 59690 66600.00000 0 10920945.938 -10345217.574 -20565443.293 10 0 59690 67500.00000 0 13352092.583 -10627854.501 -18929869.291 10 0 59690 68400.00000 0 15533909.606 -11052189.077 -16925705.833 10 0 59690 69300.00000 0 17417633.997 -11575963.581 -14592231.523 10 0 59690 70200.00000 0 18965127.126 -12149720.674 -11975075.001 10 0 59690 71100.00000 0 20150236.178 -12719041.075 -9125305.938 10 0 59690 72000.00000 0 20959660.747 -13226999.045 -6098425.195 10 0 59690 72900.00000 0 21393291.570 -13616730.816 -2953275.044 10 0 59690 73800.00000 0 21464010.640 -13834006.998 249108.513 10 0 59690 74700.00000 0 21196964.364 -13829700.606 3446678.469 10 0 59690 75600.00000 0 20628343.302 -13562047.430 6577571.708 10 0 59690 76500.00000 0 19803721.996 -12998604.760 9581293.427 10 0 59690 77400.00000 0 18776030.188 -12117827.584 12399869.117 10 0 59690 78300.00000 0 17603241.153 -10910197.516 14978943.324 10 0 59690 79200.00000 0 16345873.851 -9378858.360 17268805.861 10 0 59690 80100.00000 0 15064412.467 -7539732.453 19225327.666 10 0 59690 81000.00000 0 13816749.645 -5421113.019 20810790.536 10 0 59690 81900.00000 0 12655758.170 -3062748.729 21994596.857 10 0 59690 82800.00000 0 11627090.362 -514457.092 22753847.443 10 0 59690 83700.00000 0 10767294.942 2165678.028 23073777.821 10 0 59690 84600.00000 0 10102328.314 4913452.951 22948045.326 10 0 59690 85500.00000 0 9646521.421 7660948.915 22378861.600 10 0 59691 0.00000 0 9402045.072 10339098.539 21376967.430 10 0 59691 900.00000 0 9358896.583 12880312.194 19961448.431 10 0 59691 1800.00000 0 9495409.902 15221054.351 18159394.660 10 0 59691 2700.00000 0 9779269.366 17304269.688 16005406.489 10 0 59691 3600.00000 0 10168987.162 19081555.477 13540954.859 10 0 59691 4500.00000 0 10615784.533 20514991.253 10813605.208 10 0 59691 5400.00000 0 11065799.566 21578548.378 7876117.680 10 0 59691 6300.00000 0 11462529.841 22259019.017 4785439.027 10 0 59691 7200.00000 0 11749407.390 22556423.516 1601604.520 10 0 59691 8100.00000 0 11872396.690 22483876.904 -1613429.475 10 0 59691 9000.00000 0 11782504.351 22066918.062 -4796999.367 10 0 59691 9900.00000 0 11438091.990 21342328.131 -7886969.969 10 0 59691 10800.00000 0 10806891.353 20356487.063 -10822966.287 10 0 59691 11700.00000 0 9867632.983 19163337.432 -13547575.349 10 0 59691 12600.00000 0 8611216.092 17822042.132 -16007492.201 10 0 59691 13500.00000 0 7041366.912 16394436.248 -18154585.352 10 0 59691 14400.00000 0 5174754.992 14942382.544 -19946858.594 10 0 59691 15300.00000 0 3040560.550 13525144.415 -21349288.502 10 0 59691 16200.00000 0 679509.872 12196889.262 -22334519.830 10 0 59691 17100.00000 0 -1857581.131 11004429.380 -22883404.430 10 0 59691 18000.00000 0 -4511693.677 9985296.889 -22985372.803 10 0 59691 18900.00000 0 -7217843.278 9166234.248 -22638631.422 10 0 59691 19800.00000 0 -9907572.528 8562163.605 -21850182.714 10 0 59691 20700.00000 0 -12511593.930 8175677.170 -20635668.555 10 0 59691 21600.00000 0 -14962471.365 7997068.087 -19019041.864 10 0 59691 22500.00000 0 -17197227.602 8004897.952 -17032074.395 10 0 59691 23400.00000 0 -19159768.867 8167074.109 -14713712.198 10 0 59691 24300.00000 0 -20803025.971 8442388.303 -12109293.117 10 0 59691 25200.00000 0 -22090723.997 8782448.856 -9269643.270 10 0 59691 26100.00000 0 -22998708.662 9133922.389 -6250071.705 10 0 59691 27000.00000 0 -23515776.604 9440988.541 -3109284.014 10 0 59691 27900.00000 0 -23643977.934 9647902.860 91763.049 10 0 59691 28800.00000 0 -23398381.486 9701559.258 3291043.184 10 0 59691 29700.00000 0 -22806315.654 9553944.214 6426655.425 10 0 59691 30600.00000 0 -21906119.165 9164380.085 9438009.685 10 0 59691 31500.00000 0 -20745456.030 8501464.396 12266980.875 10 0 59691 32400.00000 0 -19379266.342 7544624.958 14859010.815 10 0 59691 33300.00000 0 -17867438.854 6285226.886 17164138.450 10 0 59691 34200.00000 0 -16272302.022 4727186.100 19137940.562 10 0 59691 35100.00000 0 -14656036.864 2887064.103 20742367.042 10 0 59691 36000.00000 0 -13078117.641 793639.646 21946456.773 10 0 59691 36900.00000 0 -11592884.766 -1513025.937 22726922.169 10 0 59691 37800.00000 0 -10247348.782 -3982992.841 23068592.539 10 0 59691 38700.00000 0 -9079314.746 -6558260.753 22964708.618 10 0 59691 39600.00000 0 -8115903.648 -9174928.247 22417062.683 10 0 59691 40500.00000 0 -7372531.520 -11765607.487 21435981.018 10 0 59691 41400.00000 0 -6852388.718 -14261997.415 20040147.716 10 0 59691 42300.00000 0 -6546441.776 -16597511.463 18256271.327 10 0 59691 43200.00000 0 -6433959.100 -18709853.023 16118598.394 10 0 59691 44100.00000 0 -6483540.267 -20543432.948 13668280.572 10 0 59691 45000.00000 0 -6654607.792 -22051528.832 10952604.964 10 0 59691 45900.00000 0 -6899300.548 -23198095.457 8024100.061 10 0 59691 46800.00000 0 -7164690.618 -23959149.360 4939532.576 10 0 59691 47700.00000 0 -7395230.874 -24323667.447 1758813.300 10 0 59691 48600.00000 0 -7535329.873 -24293959.580 -1456167.420 10 0 59691 49500.00000 0 -7531944.157 -23885497.042 -4642751.849 10 0 59691 50400.00000 0 -7337076.347 -23126201.912 -7738750.028 10 0 59691 51300.00000 0 -6910070.581 -22055225.723 -10683672.363 10 0 59691 52200.00000 0 -6219604.849 -20721268.046 -13419933.542 10 0 59691 53100.00000 0 -5245292.482 -19180505.892 -15894001.853 10 0 59691 54000.00000 0 -3978821.640 -17494222.120 -18057469.095 10 0 59691 54900.00000 0 -2424581.618 -15726234.261 -19868017.980 10 0 59691 55800.00000 0 -599747.166 -13940234.107 -21290266.099 10 0 59691 56700.00000 0 1466184.424 -12197152.169 -22296468.646 10 0 59691 57600.00000 0 3732384.842 -10552659.842 -22867065.236 10 0 59691 58500.00000 0 6148173.255 -9054915.863 -22991059.850 10 0 59691 59400.00000 0 8654919.173 -7742652.604 -22666226.793 10 0 59691 60300.00000 0 11188288.936 -6643682.556 -21899139.396 10 0 59691 61200.00000 0 13680740.412 -5773886.914 -20705022.093 10 0 59691 62100.00000 0 16064160.361 -5136726.932 -19107430.300 10 0 59691 63000.00000 0 18272533.209 -4723296.089 -17137766.003 10 0 59691 63900.00000 0 20244529.110 -4512907.840 -14834640.391 10 0 59691 64800.00000 0 21925903.254 -4474190.868 -12243097.748 10 0 59691 65700.00000 0 23271606.969 -4566642.385 -9413717.452 10 0 59691 66600.00000 0 24247523.743 -4742570.945 -6401613.175 10 0 59691 67500.00000 0 24831759.781 -4949344.279 -3265349.998 10 0 59691 68400.00000 0 25015437.652 -5131845.427 -65801.427 10 0 59691 69300.00000 0 24802962.655 -5235032.426 3135030.936 10 0 59691 70200.00000 0 24211753.639 -5206493.288 6275212.123 10 0 59691 71100.00000 0 23271452.119 -4998888.883 9294060.314 10 0 59691 72000.00000 0 22022644.874 -4572181.853 12133303.000 10 0 59691 72900.00000 0 20515154.830 -3895559.036 14738181.934 10 0 59691 73800.00000 0 18805972.192 -2948968.021 17058487.347 10 0 59691 74700.00000 0 16956911.892 -1724204.601 19049503.474 10 0 59691 75600.00000 0 15032093.931 -225506.339 20672849.386 10 0 59691 76500.00000 0 13095349.758 1530372.505 21897201.077 10 0 59691 77400.00000 0 11207660.431 3514608.430 22698882.700 10 0 59691 78300.00000 0 9424730.639 5687261.467 23062317.073 10 0 59691 79200.00000 0 7794797.057 7998695.937 22980327.642 10 0 59691 80100.00000 0 6356760.174 10391413.006 22454286.256 10 0 59691 81000.00000 0 5138715.789 12802222.254 21494103.379 10 0 59691 81900.00000 0 4156946.531 15164665.482 20118059.651 10 0 59691 82800.00000 0 3415415.527 17411595.139 18352480.151 10 0 59691 83700.00000 0 2905784.042 19477802.865 16231255.307 10 0 59691 84600.00000 0 2607953.719 21302590.586 13795214.991 10 0 59691 85500.00000 0 2491112.450 22832177.835 11091365.302 10 0 59692 0.00000 0 2515241.747 24021844.610 8172000.537 10 0 59692 900.00000 0 2633023.791 24837719.622 5093703.907 10 0 59692 1800.00000 0 2792068.859 25258135.563 1916258.989 10 0 59692 2700.00000 0 2937369.432 25274494.191 -1298512.910 10 0 59692 3600.00000 0 3013876.724 24891600.530 -4487962.870 10 0 59692 4500.00000 0 2969089.142 24127450.179 -7589848.982 10 0 59692 5400.00000 0 2755540.800 23012476.445 -10543569.661 10 0 59692 6300.00000 0 2333081.778 21588287.450 -13291369.583 10 0 59692 7200.00000 0 1670850.268 19905945.777 -15779492.269 10 0 59692 8100.00000 0 748849.763 18023863.298 -17959254.479 10 0 59692 9000.00000 0 -440938.623 16005400.773 -19788019.152 10 0 59692 9900.00000 0 -1893958.322 13916274.839 -21230045.899 10 0 59692 10800.00000 0 -3593021.244 11821883.334 -22257201.019 10 0 59692 11700.00000 0 -5508797.056 9784663.238 -22849512.248 10 0 59692 12600.00000 0 -7600827.622 7861593.904 -22995557.066 10 0 59692 13500.00000 0 -9819023.679 6101951.416 -22692677.264 10 0 59692 14400.00000 0 -12105580.074 4545408.607 -21947016.321 10 0 59692 15300.00000 0 -14397227.970 3220559.931 -20773380.060 10 0 59692 16200.00000 0 -16627728.307 2143931.565 -19194924.803 10 0 59692 17100.00000 0 -18730500.861 1319515.971 -17242680.803 10 0 59692 18000.00000 0 -20641277.896 738847.551 -14954922.105 10 0 59692 18900.00000 0 -22300670.925 381612.728 -12376396.930 10 0 59692 19800.00000 0 -23656543.425 216765.224 -9557435.274 10 0 59692 20700.00000 0 -24666090.997 204096.131 -6552952.737 10 0 59692 21600.00000 0 -25297543.485 296189.476 -3421371.197 10 0 59692 22500.00000 0 -25531419.871 440678.364 -223478.264 10 0 59692 23400.00000 0 -25361285.818 582704.810 2978751.742 10 0 59692 24300.00000 0 -24793984.776 667478.587 6123352.377 10 0 59692 25200.00000 0 -23849335.444 642827.095 9149552.528 10 0 59692 26100.00000 0 -22559310.391 461629.422 11998934.594 10 0 59692 27000.00000 0 -20966731.703 84033.230 14616542.450 10 0 59692 27900.00000 0 -19123538.914 -520637.367 16951919.605 10 0 59692 28800.00000 0 -17088701.461 -1372361.617 18960059.488 10 0 59692 29700.00000 0 -14925861.768 -2479352.277 20602251.803 10 0 59692 30600.00000 0 -12700805.381 -3837480.313 21846810.759 10 0 59692 31500.00000 0 -10478861.208 -5430218.289 22669673.008 10 0 59692 32400.00000 0 -8322337.294 -7229105.821 23054855.276 10 0 59692 33300.00000 0 -6288095.945 -9194719.515 22994763.798 10 0 59692 34200.00000 0 -4425366.556 -11278109.497 22490349.769 10 0 59692 35100.00000 0 -2773884.947 -13422645.874 21551107.345 10 0 59692 36000.00000 0 -1362435.221 -15566201.655 20194912.973 10 0 59692 36900.00000 0 -207854.306 -17643584.558 18447707.297 10 0 59692 37800.00000 0 685459.160 -19589119.371 16343023.430 10 0 59692 38700.00000 0 1325510.223 -21339275.536 13921368.030 10 0 59692 39600.00000 0 1732147.269 -22835231.567 11229464.512 10 0 59692 40500.00000 0 1935997.829 -24025269.536 8319370.541 10 0 59692 41400.00000 0 1976943.624 -24866898.642 5247484.770 10 0 59692 42300.00000 0 1902197.723 -25328617.177 2073460.736 10 0 59692 43200.00000 0 1764064.280 -25391236.533 -1140951.766 10 0 59692 44100.00000 0 1617475.530 -25048708.742 -4333115.260 10 0 59692 45000.00000 0 1517411.223 -24308419.811 -7440738.641 10 0 59692 45900.00000 0 1516311.506 -23190933.782 -10403111.188 10 0 59692 46800.00000 0 1661595.396 -21729196.167 -13162310.473 10 0 59692 47700.00000 0 1993392.953 -19967228.896 -15664358.157 10 0 59692 48600.00000 0 2542590.429 -17958371.227 -17860298.756 10 0 59692 49500.00000 0 3329274.354 -15763140.937 -19707178.047 10 0 59692 50400.00000 0 4361643.094 -13446806.842 -21168899.963 10 0 59692 51300.00000 0 5635434.145 -11076776.188 -22216943.829 10 0 59692 52200.00000 0 7133892.857 -8719908.333 -22830926.971 10 0 59692 53100.00000 0 8828284.551 -6439869.176 -22999001.353 10 0 59692 54000.00000 0 10678928.476 -4294638.471 -22718076.750 10 0 59692 54900.00000 0 12636709.423 -2334275.128 -21993866.826 10 0 59692 55800.00000 0 14645002.283 -599033.997 -20840758.368 10 0 59692 56700.00000 0 16641927.323 882088.051 -19281507.751 10 0 59692 57600.00000 0 18562840.121 2092317.796 -17346772.208 10 0 59692 58500.00000 0 20342950.429 3027545.268 -15074486.921 10 0 59692 59400.00000 0 21919959.291 3696222.176 -12509101.880 10 0 59692 60300.00000 0 23236603.589 4118727.140 -9700695.101 10 0 59692 61200.00000 0 24243001.613 4326228.071 -6703981.108 10 0 59692 62100.00000 0 24898702.321 4359093.131 -3577235.238 10 0 59692 63000.00000 0 25174353.980 4264920.221 -381155.629 10 0 59692 63900.00000 0 25052924.232 4096270.344 2822314.373 10 0 59692 64800.00000 0 24530422.762 3908201.916 5971180.511 10 0 59692 65700.00000 0 23616098.609 3755710.590 9004585.894 10 0 59692 66600.00000 0 22332105.926 3691182.296 11863971.090 10 0 59692 67500.00000 0 20712653.773 3761965.889 14494185.026 10 0 59692 68400.00000 0 18802676.399 4008166.203 16844527.027 10 0 59692 69300.00000 0 16656079.645 4460748.724 18869701.858 10 0 59692 70200.00000 0 14333635.866 5140033.978 20530671.572 10 0 59692 71100.00000 0 11900613.435 6054643.695 21795389.899 10 0 59692 72000.00000 0 9424237.286 7200942.373 22639406.874 10 0 59692 72900.00000 0 6971083.295 8562997.911 23046333.612 10 0 59692 73800.00000 0 4604511.798 10113064.181 23008159.172 10 0 59692 74700.00000 0 2382244.043 11812567.332 22525413.698 10 0 59692 75600.00000 0 354179.678 13613557.452 21607174.190 10 0 59692 76500.00000 0 -1439455.950 15460568.208 20270911.621 10 0 59692 77400.00000 0 -2969558.743 17292810.164 18542180.503 10 0 59692 78300.00000 0 -4219127.195 19046609.435 16454154.569 10 0 59692 79200.00000 0 -5183736.736 20657992.458 14047014.881 10 0 59692 80100.00000 0 -5871486.193 22065310.621 11367199.546 10 0 59692 81000.00000 0 -6302417.109 23211795.739 8466527.033 10 0 59692 81900.00000 0 -6507428.687 24047939.056 5401207.935 10 0 59692 82800.00000 0 -6526732.488 24533592.595 2230762.932 10 0 59692 83700.00000 0 -6407910.996 24639702.399 -983132.816 10 0 59692 84600.00000 0 -6203661.641 24349597.960 -4177856.385 10 0 59692 85500.00000 0 -5969322.081 23659780.380 -7291070.492 99